Regional Weather Roundup
Issued by NWS

Home | Current Version | Previous Version | Text Only | Print | Product List | Glossary On
Versions: 1 2 3 4 5 6 7 8 9 10 11 12 13 14 15 16 17 18 19 20 21 22 23 24 25 26 27
000
ASUS46 KPQR 191210
RWROR

OREGON REGIONAL WEATHER ROUNDUP
NATIONAL WEATHER SERVICE PORTLAND OR
400 AM PST SUN FEB 19 2017

NOTE: "FAIR" INDICATES FEW OR NO CLOUDS BELOW 12,000 FEET WITH
NO SIGNIFICANT WEATHER AND/OR OBSTRUCTIONS TO VISIBILITY.

ORZ001>013-191300-
NORTHWEST OREGON


CITY           SKY/WX    TMP DP  RH WIND       PRES   REMARKS
ASTORIA        RAIN      41  37  86 SE8       29.35S FOG
6HR MIN TEMP:  40; 6HR MAX TEMP:  42; 6HR PCP:  0.29;

NEWPORT        MOCLDY    41  39  93 SE6G16      N/A
PORTLAND       CLOUDY    43  39  86 S14       29.43S
6HR MIN TEMP:  41; 6HR MAX TEMP:  43; 6HR PCP:  0.24;

VANCOUVER WA   CLOUDY    44  41  89 SE7       29.43R
6HR MIN TEMP:  41; 6HR MAX TEMP:  44; 6HR PCP:  0.22;

SCAPPOOSE      LGT RAIN  43  41  93 SE8       29.40F
6HR MIN TEMP:  40; 6HR MAX TEMP:  43; 6HR PCP:  0.31;

HILLSBORO      CLOUDY    43  40  89 S9        29.41S
6HR MIN TEMP:  42; 6HR MAX TEMP:  43; 6HR PCP:  0.26;

AURORA         LGT RAIN  43  37  79 S17G25    29.45S
6HR MIN TEMP:  42; 6HR MAX TEMP:  44; 6HR PCP:  0.25;

MCMINNVILLE    CLOUDY    41  39  93 S17       29.43R
6HR MIN TEMP:  41; 6HR MAX TEMP:  45; 6HR PCP:  0.24;

SALEM          CLOUDY    39  35  86 S10       29.43F WCI  32
6HR MIN TEMP:  39; 6HR MAX TEMP:  45; 6HR PCP:  0.38;

CORVALLIS        N/A     43  37  81 S15       29.45F
EUGENE         LGT RAIN  43  40  89 S9        29.48R
6HR MIN TEMP:  43; 6HR MAX TEMP:  45; 6HR PCP: TRACE;

$$

ORZ021-028-191300-
SOUTHWEST OREGON


CITY           SKY/WX    TMP DP  RH WIND       PRES   REMARKS
NORTH BEND     MOCLDY    45  43  93 SE8       29.49S
6HR MIN TEMP:  45; 6HR MAX TEMP:  46; 6HR PCP:  0.02;

BROOKINGS      LGT RAIN  47  42  83 VRB5      29.57R
ROSEBURG       RAIN      41  39  93 SE3       29.52R FOG
6HR MIN TEMP:  41; 6HR MAX TEMP:  47; 6HR PCP:  0.40;

SEXTON SUMMIT  SNOW      31  31 100 S13G21    29.44R VSB 1/4 WCI  21
6HR MIN TEMP:  30; 6HR MAX TEMP:  31; 6HR PCP:  0.29;

MEDFORD        CLOUDY    43  37  79 S8        29.53S
6HR MIN TEMP:  40; 6HR MAX TEMP:  47; 6HR PCP:  0.09;

$$

ORZ014>016-041-191300-
COLUMBIA GORGE


CITY           SKY/WX    TMP DP  RH WIND       PRES   REMARKS
TROUTDALE      LGT RAIN  42  39  89 E3        29.45R
6HR MIN TEMP:  41; 6HR MAX TEMP:  44; 6HR PCP:  0.22;

THE DALLES     CLOUDY    34  34 100 NE5       29.47F FOG     WCI  30
6HR MIN TEMP:  34; 6HR MAX TEMP:  36; 6HR PCP:  0.01;

$$

ORZ029>031-041-044-049-050-061>064-502-503-505>511-191300-
EASTERN OREGON


CITY           SKY/WX    TMP DP  RH WIND       PRES   REMARKS
REDMOND        CLOUDY    37  26  64 SW9       29.44R WCI  30
6HR MIN TEMP:  29; 6HR MAX TEMP:  39;

BEND           LGT RAIN  36  30  80 S17       29.45R WCI  25
PRINEVILLE     CLOUDY    37  28  70 S6        29.44R WCI  33
KLAMATH FALLS  CLOUDY    36  28  73 S20       29.47F WCI  25
6HR MIN TEMP:  33; 6HR MAX TEMP:  38;

LAKEVIEW       MOCLDY    34  28  80 S8        29.53F WCI  27
HERMISTON      FOG       34  34 100 E3        29.50R VSB 1
6HR MIN TEMP:  31; 6HR MAX TEMP:  35; 6HR PCP:  0.09;

PENDLETON      FOG       34  34 100 NW9       29.46F VSB 1/4 WCI  27
6HR MIN TEMP:  33; 6HR MAX TEMP:  37; 6HR PCP:  0.03;

JOHN DAY       PTCLDY    40  30  68 S14       29.48F WCI  32
MEACHAM        NOT AVBL
LA GRANDE      MOCLDY    39  36  87 N5        29.48R
6HR MIN TEMP:  36; 6HR MAX TEMP:  39; 6HR PCP:  0.01;

BAKER CITY     MOCLDY    35  33  92 SE12      29.49R WCI  27
6HR MIN TEMP:  33; 6HR MAX TEMP:  37;

BURNS          MOCLDY    29  28  96 E3        29.52R
6HR MIN TEMP:  27; 6HR MAX TEMP:  32; 6HR PCP: TRACE;

ROME             N/A     40  32  73 S7        29.53R
6HR MIN TEMP:  40; 6HR MAX TEMP:  43;

ONTARIO        CLOUDY    34  33  96 CALM      29.56S FOG
6HR MIN TEMP:  32; 6HR MAX TEMP:  34; 6HR PCP:  0.03;

$$




USA.gov is the U.S. government's official web portal to all federal, state and local government web resources and services.